EZY39PR EGPH-EGGW

Flight info

Callsign EZY39PR
Flight time 1h 9m
Altitude 33000
Route GOSAM P600 FENIK L612 NAVSO DCT AKOMU DCT VAMEB UL612 LISTO
Aircraft A320/M-SDE3FGHIRWY/LB1

Departure

Time 2026-05-05 17:22
Airport Edinburgh Airport (EGPH)

Arrival

Time 2026-05-05 18:31
Airport London Luton Airport (EGGW)
Time Latitude Longitude Altitude Speed Heading
2026-05-05 16:46 55.94919 -3.36428 114 ft 0 kts 148°
2026-05-05 16:50 55.94919 -3.36429 114 ft 0 kts 148°
2026-05-05 16:50 55.94920 -3.36429 114 ft 0 kts 149°
2026-05-05 17:09 55.94921 -3.36430 116 ft 2 kts 149°
2026-05-05 17:09 55.94943 -3.36452 112 ft 4 kts 155°
2026-05-05 17:10 55.94968 -3.36468 112 ft 4 kts 174°
2026-05-05 17:10 55.94991 -3.36462 112 ft 4 kts 230°
2026-05-05 17:10 55.94994 -3.36456 112 ft 1 kts 239°
2026-05-05 17:14 55.94994 -3.36457 112 ft 1 kts 239°
2026-05-05 17:15 55.94984 -3.36485 112 ft 4 kts 239°
2026-05-05 17:15 55.94964 -3.36545 112 ft 7 kts 239°
2026-05-05 17:15 55.94939 -3.36617 112 ft 7 kts 238°
2026-05-05 17:15 55.94905 -3.36714 116 ft 8 kts 238°
2026-05-05 17:16 55.94902 -3.36799 113 ft 7 kts 305°
2026-05-05 17:16 55.94923 -3.36859 114 ft 5 kts 281°
2026-05-05 17:16 55.94909 -3.36939 113 ft 8 kts 239°
2026-05-05 17:16 55.94871 -3.37054 115 ft 15 kts 241°
2026-05-05 17:17 55.94802 -3.37256 112 ft 19 kts 238°
2026-05-05 17:17 55.94737 -3.37453 115 ft 18 kts 239°
2026-05-05 17:17 55.94676 -3.37632 115 ft 16 kts 238°
2026-05-05 17:17 55.94621 -3.37795 114 ft 15 kts 238°
2026-05-05 17:18 55.94588 -3.37923 116 ft 9 kts 276°
2026-05-05 17:18 55.94614 -3.37972 114 ft 0 kts 328°
2026-05-05 17:20 55.94657 -3.38020 112 ft 11 kts 328°
2026-05-05 17:20 55.94726 -3.38051 115 ft 9 kts 30°
2026-05-05 17:21 55.94767 -3.37938 112 ft 19 kts 59°
2026-05-05 17:21 55.94962 -3.37358 111 ft 89 kts 59°
2026-05-05 17:21 55.95378 -3.36123 112 ft 142 kts 61°
2026-05-05 17:22 55.96612 -3.33276 1327 ft 157 kts 44°
2026-05-05 17:22 55.97497 -3.31911 1667 ft 179 kts 44°
2026-05-05 17:22 55.98487 -3.30322 2030 ft 204 kts 45°
2026-05-05 17:22 55.99645 -3.28605 2483 ft 230 kts 31°
2026-05-05 17:23 56.01265 -3.28106 3177 ft 250 kts 352°
2026-05-05 17:23 56.02794 -3.29550 4073 ft 261 kts 315°
2026-05-05 17:23 56.03603 -3.32448 5083 ft 267 kts 279°
2026-05-05 17:23 56.03530 -3.35791 5747 ft 270 kts 262°
2026-05-05 17:24 56.03030 -3.39014 5945 ft 269 kts 253°
2026-05-05 17:24 56.02405 -3.42149 6000 ft 268 kts 251°
2026-05-05 17:24 56.01789 -3.45297 6109 ft 271 kts 253°
2026-05-05 17:24 56.01219 -3.48488 7043 ft 268 kts 255°
2026-05-05 17:25 56.00692 -3.51688 7981 ft 268 kts 257°
2026-05-05 17:25 56.00361 -3.53814 8591 ft 269 kts 257°
2026-05-05 17:25 55.99724 -3.58126 9726 ft 274 kts 258°
2026-05-05 17:25 55.99247 -3.61433 10488 ft 280 kts 258°
2026-05-05 17:26 55.98748 -3.64937 10741 ft 303 kts 258°
2026-05-05 17:26 55.98210 -3.68722 10936 ft 326 kts 258°
2026-05-05 17:26 55.97637 -3.72752 11266 ft 341 kts 258°
2026-05-05 17:26 55.97044 -3.76896 11908 ft 347 kts 257°
2026-05-05 17:27 55.96440 -3.81086 12640 ft 350 kts 257°
2026-05-05 17:27 55.95826 -3.85315 13344 ft 354 kts 257°
2026-05-05 17:27 55.95204 -3.89577 14038 ft 357 kts 257°
2026-05-05 17:27 55.94574 -3.93876 14659 ft 360 kts 257°
2026-05-05 17:28 55.93866 -3.98110 15243 ft 364 kts 250°
2026-05-05 17:28 55.92619 -4.02078 15831 ft 371 kts 236°
2026-05-05 17:28 55.90813 -4.05413 16412 ft 379 kts 221°
2026-05-05 17:28 55.88640 -4.08134 16984 ft 383 kts 217°
2026-05-05 17:29 55.86429 -4.10828 17552 ft 386 kts 217°
2026-05-05 17:29 55.84205 -4.13539 18119 ft 389 kts 217°
2026-05-05 17:29 55.81962 -4.16276 18640 ft 392 kts 217°
2026-05-05 17:29 55.79702 -4.19031 19135 ft 395 kts 217°
2026-05-05 17:30 55.77434 -4.21705 19604 ft 399 kts 212°
2026-05-05 17:30 55.74864 -4.23647 20081 ft 406 kts 199°
2026-05-05 17:30 55.72061 -4.24539 20553 ft 413 kts 187°
2026-05-05 17:30 55.70494 -4.24586 20792 ft 417 kts 180°
2026-05-05 17:31 55.68464 -4.24202 21114 ft 421 kts 172°
2026-05-05 17:31 55.65615 -4.22842 21571 ft 427 kts 162°
2026-05-05 17:31 55.62887 -4.20703 22013 ft 432 kts 153°
2026-05-05 17:31 55.60315 -4.18140 23161 ft 414 kts 153°
2026-05-05 17:32 55.57893 -4.15748 24343 ft 394 kts 154°
2026-05-05 17:32 55.55542 -4.13455 25345 ft 380 kts 154°
2026-05-05 17:32 55.53233 -4.11220 25972 ft 377 kts 154°
2026-05-05 17:32 55.50928 -4.08997 26456 ft 378 kts 154°
2026-05-05 17:33 55.48610 -4.06759 26753 ft 384 kts 154°
2026-05-05 17:33 55.46236 -4.04469 26883 ft 394 kts 154°
2026-05-05 17:33 55.43800 -4.02121 26999 ft 403 kts 154°
2026-05-05 17:33 55.41312 -3.99713 27122 ft 412 kts 154°
2026-05-05 17:34 55.38775 -3.97252 27271 ft 421 kts 154°
2026-05-05 17:34 55.36219 -3.94777 27392 ft 429 kts 154°
2026-05-05 17:34 55.33583 -3.92233 27535 ft 436 kts 154°
2026-05-05 17:34 55.30902 -3.89649 27672 ft 443 kts 154°
2026-05-05 17:35 55.28179 -3.87027 27806 ft 450 kts 154°
2026-05-05 17:35 55.25417 -3.84367 27947 ft 456 kts 154°
2026-05-05 17:35 55.22621 -3.81679 28084 ft 461 kts 154°
2026-05-05 17:35 55.19777 -3.79030 28226 ft 465 kts 155°
2026-05-05 17:36 55.16891 -3.76487 28579 ft 464 kts 156°
2026-05-05 17:36 55.13991 -3.74027 28988 ft 463 kts 157°
2026-05-05 17:36 55.11127 -3.71639 29399 ft 462 kts 157°
2026-05-05 17:36 55.08229 -3.69232 29813 ft 461 kts 157°
2026-05-05 17:37 55.05343 -3.66815 30200 ft 460 kts 157°
2026-05-05 17:37 55.03399 -3.65173 30430 ft 459 kts 157°
2026-05-05 17:37 54.99597 -3.61938 30838 ft 459 kts 156°
2026-05-05 17:37 54.96733 -3.59489 31163 ft 458 kts 156°
2026-05-05 17:38 54.93874 -3.57038 31467 ft 458 kts 156°
2026-05-05 17:38 54.91017 -3.54592 31796 ft 457 kts 156°
2026-05-05 17:38 54.88161 -3.52161 32099 ft 457 kts 156°
2026-05-05 17:38 54.85305 -3.49745 32417 ft 456 kts 156°
2026-05-05 17:39 54.82489 -3.47370 32734 ft 456 kts 156°
2026-05-05 17:39 54.79635 -3.44963 32996 ft 456 kts 157°
2026-05-05 17:39 54.76773 -3.42557 33054 ft 458 kts 157°
2026-05-05 17:40 54.71029 -3.37737 33049 ft 459 kts 157°
2026-05-05 17:40 54.65288 -3.32927 33046 ft 458 kts 157°
2026-05-05 17:41 54.59596 -3.28168 33037 ft 457 kts 156°
2026-05-05 17:41 54.53867 -3.23395 33037 ft 457 kts 157°
2026-05-05 17:42 54.48140 -3.18641 33040 ft 456 kts 158°
2026-05-05 17:42 54.42429 -3.13908 33045 ft 455 kts 158°
2026-05-05 17:43 54.36774 -3.09240 33053 ft 453 kts 158°
2026-05-05 17:43 54.31092 -3.04566 33052 ft 453 kts 158°
2026-05-05 17:44 54.25417 -2.99921 33052 ft 452 kts 158°
2026-05-05 17:44 54.19744 -2.95294 33026 ft 451 kts 158°
2026-05-05 17:45 54.14061 -2.90766 33032 ft 450 kts 159°
2026-05-05 17:45 54.08351 -2.86610 33028 ft 449 kts 160°
2026-05-05 17:46 54.02588 -2.82542 33026 ft 448 kts 160°
2026-05-05 17:46 53.96831 -2.78425 33025 ft 449 kts 160°
2026-05-05 17:47 53.91089 -2.74255 33016 ft 449 kts 159°
2026-05-05 17:47 53.85380 -2.70110 33019 ft 449 kts 159°
2026-05-05 17:48 53.79620 -2.65973 33017 ft 449 kts 160°
2026-05-05 17:48 53.73861 -2.61851 33018 ft 450 kts 160°
2026-05-05 17:49 53.68096 -2.57740 33006 ft 450 kts 158°
2026-05-05 17:49 53.62355 -2.53656 33010 ft 451 kts 158°
2026-05-05 17:50 53.56569 -2.49547 33012 ft 452 kts 158°
2026-05-05 17:50 53.50774 -2.45447 33013 ft 452 kts 159°
2026-05-05 17:51 53.44978 -2.41346 33015 ft 452 kts 158°
2026-05-05 17:51 53.39182 -2.37260 33020 ft 452 kts 158°
2026-05-05 17:52 53.33422 -2.33215 33023 ft 452 kts 159°
2026-05-05 17:52 53.27626 -2.29155 33021 ft 452 kts 159°
2026-05-05 17:53 53.21827 -2.25111 33010 ft 452 kts 158°
2026-05-05 17:53 53.16024 -2.21049 33001 ft 453 kts 156°
2026-05-05 17:54 53.10694 -2.15475 33002 ft 454 kts 144°
2026-05-05 17:54 53.05635 -2.09294 32999 ft 454 kts 144°
2026-05-05 17:55 53.00534 -2.03092 32992 ft 455 kts 145°
2026-05-05 17:55 52.95426 -1.96907 32999 ft 454 kts 144°
2026-05-05 17:56 52.90328 -1.90746 33007 ft 453 kts 144°
2026-05-05 17:56 52.85231 -1.84604 32670 ft 453 kts 145°
2026-05-05 17:56 52.82680 -1.81542 32401 ft 453 kts 145°
2026-05-05 17:57 52.80159 -1.78526 32136 ft 453 kts 145°
2026-05-05 17:57 52.77606 -1.75472 31876 ft 454 kts 145°
2026-05-05 17:57 52.75033 -1.72452 31607 ft 453 kts 149°
2026-05-05 17:57 52.72310 -1.69907 31348 ft 445 kts 154°
2026-05-05 17:58 52.69601 -1.67569 31094 ft 433 kts 154°
2026-05-05 17:58 52.66967 -1.65304 30849 ft 422 kts 154°
2026-05-05 17:58 52.64400 -1.63103 30590 ft 411 kts 155°
2026-05-05 17:58 52.61893 -1.60952 30361 ft 401 kts 155°
2026-05-05 17:59 52.59491 -1.58889 30132 ft 391 kts 155°
2026-05-05 17:59 52.57062 -1.56805 28955 ft 401 kts 155°
2026-05-05 17:59 52.54524 -1.54638 27295 ft 420 kts 155°
2026-05-05 17:59 52.51895 -1.52402 26012 ft 430 kts 155°
2026-05-05 18:00 52.49228 -1.50132 25230 ft 431 kts 155°
2026-05-05 18:00 52.46569 -1.47865 24524 ft 430 kts 155°
2026-05-05 18:00 52.43915 -1.45606 23777 ft 430 kts 155°
2026-05-05 18:00 52.41260 -1.43352 22964 ft 429 kts 155°
2026-05-05 18:01 52.38651 -1.41143 22280 ft 426 kts 154°
2026-05-05 18:01 52.36025 -1.38919 21596 ft 423 kts 154°
2026-05-05 18:01 52.33422 -1.36716 20949 ft 420 kts 154°
2026-05-05 18:01 52.30835 -1.34528 20291 ft 417 kts 154°
2026-05-05 18:02 52.28266 -1.32324 19715 ft 419 kts 153°
2026-05-05 18:02 52.25692 -1.29983 19332 ft 426 kts 152°
2026-05-05 18:02 52.23126 -1.27551 18898 ft 426 kts 151°
2026-05-05 18:02 52.20584 -1.25094 18466 ft 424 kts 150°
2026-05-05 18:03 52.18058 -1.22646 18003 ft 421 kts 150°
2026-05-05 18:03 52.15543 -1.20226 17566 ft 419 kts 151°
2026-05-05 18:03 52.13061 -1.17869 17144 ft 417 kts 151°
2026-05-05 18:03 52.10556 -1.15520 16718 ft 414 kts 151°
2026-05-05 18:04 52.08077 -1.13212 16391 ft 405 kts 152°
2026-05-05 18:04 52.05683 -1.10981 16257 ft 389 kts 150°
2026-05-05 18:04 52.03557 -1.08394 16119 ft 376 kts 136°
2026-05-05 18:04 52.01943 -1.05149 15981 ft 364 kts 122°
2026-05-05 18:05 52.00897 -1.01498 15843 ft 349 kts 108°
2026-05-05 18:05 52.00424 -0.97768 15637 ft 329 kts 95°
2026-05-05 18:05 52.00456 -0.94122 15190 ft 320 kts 83°
2026-05-05 18:05 52.00724 -0.90604 14585 ft 318 kts 83°
2026-05-05 18:06 52.00986 -0.87048 13958 ft 320 kts 83°
2026-05-05 18:06 52.01162 -0.84618 13715 ft 320 kts 83°
2026-05-05 18:06 52.01499 -0.79887 13298 ft 317 kts 83°
2026-05-05 18:06 52.01823 -0.76367 13056 ft 313 kts 74°
2026-05-05 18:07 52.02594 -0.73096 12823 ft 309 kts 60°
2026-05-05 18:07 52.03816 -0.70256 12577 ft 306 kts 45°
2026-05-05 18:07 52.05305 -0.67794 12322 ft 305 kts 43°
2026-05-05 18:07 52.06791 -0.65344 12064 ft 304 kts 43°
2026-05-05 18:08 52.08270 -0.62891 11812 ft 303 kts 43°
2026-05-05 18:08 52.09719 -0.60485 11559 ft 301 kts 43°
2026-05-05 18:08 52.11183 -0.58054 11311 ft 300 kts 43°
2026-05-05 18:08 52.12641 -0.55636 11060 ft 298 kts 43°
2026-05-05 18:09 52.14086 -0.53228 10815 ft 297 kts 43°
2026-05-05 18:09 52.15522 -0.50825 10566 ft 296 kts 43°
2026-05-05 18:09 52.16951 -0.48429 10328 ft 294 kts 43°
2026-05-05 18:09 52.18361 -0.46062 10075 ft 286 kts 43°
2026-05-05 18:10 52.19719 -0.43784 9861 ft 272 kts 42°
2026-05-05 18:10 52.21132 -0.41962 9741 ft 256 kts 25°
2026-05-05 18:10 52.22752 -0.40909 9602 ft 248 kts
2026-05-05 18:10 52.24446 -0.40625 9469 ft 244 kts 356°
2026-05-05 18:11 52.26142 -0.40685 9333 ft 244 kts 357°
2026-05-05 18:11 52.27840 -0.40732 9205 ft 244 kts 356°
2026-05-05 18:11 52.29533 -0.40772 9074 ft 243 kts 356°
2026-05-05 18:11 52.31218 -0.40810 8940 ft 242 kts 356°
2026-05-05 18:12 52.32903 -0.40848 8809 ft 243 kts 358°
2026-05-05 18:12 52.34551 -0.40399 8674 ft 246 kts 18°
2026-05-05 18:12 52.36027 -0.38975 8544 ft 250 kts 38°
2026-05-05 18:12 52.37104 -0.36735 8413 ft 254 kts 61°
2026-05-05 18:13 52.37606 -0.33973 8283 ft 256 kts 83°
2026-05-05 18:13 52.37448 -0.31065 8162 ft 260 kts 106°
2026-05-05 18:13 52.36635 -0.28443 8029 ft 260 kts 129°
2026-05-05 18:13 52.35285 -0.26530 7959 ft 254 kts 153°
2026-05-05 18:14 52.33665 -0.25362 7975 ft 255 kts 159°
2026-05-05 18:14 52.32025 -0.24253 7975 ft 255 kts 159°
2026-05-05 18:14 52.30376 -0.23196 7968 ft 254 kts 165°
2026-05-05 18:14 52.28638 -0.22628 7973 ft 257 kts 173°
2026-05-05 18:15 52.26901 -0.22140 7967 ft 257 kts 171°
2026-05-05 18:15 52.25142 -0.21640 7966 ft 258 kts 172°
2026-05-05 18:15 52.23368 -0.21132 7966 ft 259 kts 172°
2026-05-05 18:15 52.21595 -0.20621 7967 ft 257 kts 171°
2026-05-05 18:16 52.19841 -0.20116 7957 ft 255 kts 171°
2026-05-05 18:16 52.18086 -0.19600 7755 ft 259 kts 170°
2026-05-05 18:16 52.16294 -0.19040 7386 ft 261 kts 169°
2026-05-05 18:16 52.14534 -0.18476 7154 ft 255 kts 169°
2026-05-05 18:17 52.12805 -0.17929 6710 ft 251 kts 171°
2026-05-05 18:17 52.11080 -0.17952 6244 ft 247 kts 192°
2026-05-05 18:17 52.09492 -0.18944 5798 ft 242 kts 214°
2026-05-05 18:17 52.08238 -0.20699 5642 ft 242 kts 229°
2026-05-05 18:18 52.07117 -0.22747 5466 ft 243 kts 230°
2026-05-05 18:18 52.05992 -0.24796 5301 ft 242 kts 229°
2026-05-05 18:18 52.04873 -0.26830 5117 ft 242 kts 230°
2026-05-05 18:18 52.03751 -0.28870 4999 ft 243 kts 229°
2026-05-05 18:19 52.02628 -0.30906 4979 ft 242 kts 229°
2026-05-05 18:19 52.01499 -0.32954 4982 ft 244 kts 229°
2026-05-05 18:19 52.00378 -0.35015 4980 ft 244 kts 234°
2026-05-05 18:19 51.99526 -0.37370 4982 ft 242 kts 250°
2026-05-05 18:20 51.99022 -0.39960 4983 ft 240 kts 255°
2026-05-05 18:20 51.98705 -0.41678 4982 ft 241 kts 255°
2026-05-05 18:20 51.97946 -0.45054 4978 ft 241 kts 242°
2026-05-05 18:20 51.96963 -0.47274 4986 ft 243 kts 232°
2026-05-05 18:21 51.95910 -0.49432 4981 ft 244 kts 232°
2026-05-05 18:21 51.94861 -0.51589 4982 ft 244 kts 233°
2026-05-05 18:21 51.93806 -0.53758 4982 ft 245 kts 233°
2026-05-05 18:21 51.92758 -0.55914 4980 ft 243 kts 234°
2026-05-05 18:22 51.91708 -0.58074 4984 ft 243 kts 233°
2026-05-05 18:22 51.90670 -0.60222 4982 ft 242 kts 236°
2026-05-05 18:22 51.89889 -0.62617 4980 ft 241 kts 254°
2026-05-05 18:22 51.89428 -0.65214 4984 ft 240 kts 257°
2026-05-05 18:23 51.88973 -0.67828 4983 ft 242 kts 256°
2026-05-05 18:23 51.88527 -0.70346 4976 ft 229 kts 257°
2026-05-05 18:23 51.88095 -0.72741 4977 ft 215 kts 252°
2026-05-05 18:23 51.87277 -0.74680 4994 ft 206 kts 216°
2026-05-05 18:24 51.85990 -0.75407 4854 ft 197 kts 178°
2026-05-05 18:24 51.84668 -0.74944 4563 ft 194 kts 162°
2026-05-05 18:24 51.83375 -0.74334 4305 ft 192 kts 162°
2026-05-05 18:24 51.82232 -0.73350 4070 ft 184 kts 131°
2026-05-05 18:25 51.81649 -0.71626 3843 ft 172 kts 97°
2026-05-05 18:25 51.81602 -0.70983 3751 ft 169 kts 87°
2026-05-05 18:25 51.82030 -0.67985 3321 ft 163 kts 71°
2026-05-05 18:25 51.82335 -0.66234 3074 ft 160 kts 71°
2026-05-05 18:26 51.82628 -0.64555 2993 ft 148 kts 71°
2026-05-05 18:26 51.82896 -0.63026 3007 ft 141 kts 70°
2026-05-05 18:26 51.83163 -0.61507 3005 ft 139 kts 70°
2026-05-05 18:26 51.83425 -0.60016 3012 ft 137 kts 70°
2026-05-05 18:27 51.83687 -0.58524 2996 ft 138 kts 70°
2026-05-05 18:27 51.83949 -0.57026 2894 ft 138 kts 71°
2026-05-05 18:27 51.84210 -0.55537 2753 ft 137 kts 70°
2026-05-05 18:27 51.84469 -0.54057 2573 ft 137 kts 71°
2026-05-05 18:28 51.84979 -0.51134 2220 ft 134 kts 71°
2026-05-05 18:28 51.85230 -0.49695 2047 ft 135 kts 70°
2026-05-05 18:28 51.85484 -0.48240 1855 ft 134 kts 70°
2026-05-05 18:29 51.85739 -0.46777 1683 ft 135 kts 69°
2026-05-05 18:29 51.85993 -0.45317 1484 ft 134 kts 72°
2026-05-05 18:29 51.86245 -0.43871 1294 ft 134 kts 71°
2026-05-05 18:29 51.86497 -0.42419 1097 ft 134 kts 70°
2026-05-05 18:30 51.86742 -0.40987 934 ft 132 kts 71°
2026-05-05 18:30 51.86989 -0.39545 731 ft 132 kts 70°
2026-05-05 18:30 51.87232 -0.38149 551 ft 129 kts 71°
2026-05-05 18:30 51.87435 -0.37018 523 ft 66 kts 74°
2026-05-05 18:31 51.87501 -0.36629 526 ft 29 kts 75°
2026-05-05 18:31 51.87573 -0.36214 519 ft 41 kts 75°
2026-05-05 18:31 51.87635 -0.35932 516 ft 15 kts 29°
2026-05-05 18:31 51.87725 -0.35946 516 ft 11 kts 344°
2026-05-05 18:32 51.87785 -0.36018 517 ft 10 kts 295°
2026-05-05 18:32 51.87783 -0.36105 518 ft 7 kts 252°
2026-05-05 18:32 51.87770 -0.36167 518 ft 5 kts 251°
2026-05-05 18:32 51.87752 -0.36261 518 ft 11 kts 252°
2026-05-05 18:33 51.87738 -0.36338 518 ft 10 kts 255°
2026-05-05 18:33 51.87721 -0.36436 519 ft 8 kts 254°
2026-05-05 18:33 51.87705 -0.36528 520 ft 8 kts 254°
2026-05-05 18:33 51.87677 -0.36693 522 ft 17 kts 255°
2026-05-05 18:34 51.87648 -0.36860 525 ft 13 kts 254°
2026-05-05 18:34 51.87624 -0.37002 522 ft 15 kts 254°
2026-05-05 18:34 51.87605 -0.37107 522 ft 14 kts 254°
2026-05-05 18:34 51.87581 -0.37250 522 ft 12 kts 254°
2026-05-05 18:35 51.87577 -0.37368 522 ft 10 kts 284°
2026-05-05 18:35 51.87611 -0.37444 523 ft 7 kts 322°
2026-05-05 18:35 51.87675 -0.37509 521 ft 13 kts 319°
2026-05-05 18:35 51.87722 -0.37651 519 ft 14 kts 295°
2026-05-05 18:36 51.87756 -0.37766 523 ft 11 kts 295°
2026-05-05 18:36 51.87794 -0.37894 523 ft 12 kts 295°
2026-05-05 18:36 51.87845 -0.37989 523 ft 11 kts 331°
2026-05-05 18:36 51.87921 -0.38019 523 ft 12 kts 359°
2026-05-05 18:37 51.87989 -0.37975 523 ft 9 kts 36°
2026-05-05 18:37 51.88009 -0.37905 523 ft 1 kts 120°
2026-05-05 18:37 51.88008 -0.37903 523 ft 0 kts 121°
2026-05-05 18:37 51.88008 -0.37902 523 ft 0 kts 124°
2026-05-05 18:38 51.87996 -0.37880 523 ft 2 kts 128°
2026-05-05 18:38 51.87989 -0.37866 523 ft 1 kts 128°
2026-05-05 18:38 51.87988 -0.37863 523 ft 0 kts 128°